Location: Unspecified
(54.1780°N, 0.0000°E)
Time: 12:19:22
(UTC+00:00)

Tiros 1 - Pass Details

Date: 22 June 2019
Orbit: 630 x 664 km, 48.4° (Epoch: 19 July)

Event Time Altitude Azimuth Distance (km) Brightness Sun altitude
Rises 04:28:34 0° 273° (W) 2,929 10.0 6.3°
Reaches altitude 10° 04:31:16 10° 258° (WSW) 2,015 9.1 6.6°
Maximum altitude 04:34:52 23° 207° (SSW) 1,359 8.4 7.1°
Drops below altitude 10° 04:38:27 10° 156° (SSE) 2,003 9.7 7.5°
Sets 04:41:08 0° 142° (SE) 2,908 10.6 7.9°
